Weather History for KYKM - March, 2013

Change the Weather History Date:

Thursday, March 21, 2013

  Actual Average Record
Temperature  
Mean Temperature 40 °F 44 °F  
Max Temperature 53 °F 58 °F 76 °F (1960)
Min Temperature 27 °F 31 °F 20 °F (1952)
Degree Days  
Heating Degree Days 25 20  
Month to date heating degree days 417 482  
Since 1 July heating degree days 4380 5009  
Cooling Degree Days 0 0  
Month to date cooling degree days 0 0  
Year to date cooling degree days 0 0  
Moisture  
Dew Point 21 °F    
Average Humidity 49    
Maximum Humidity 72    
Minimum Humidity 26    
Precipitation  
Precipitation 0.00 in 0.02 in 0.54 in (1958)
Month to date precipitation 0.70 0.46  
Year to date precipitation 0.83 2.38  
Snow  
Snow 0.00 in 0.00 in 2.10 in (1975)
Month to date snowfall T 0.6  
Year to date snowfall 1.1 8.5  
Since 1 July snowfall 15.3 21.5  
Snow Depth 0.00 in    
Sea Level Pressure  
Sea Level Pressure 30.06 in    
Wind  
Wind Speed 12 mph (WNW)    
Max Wind Speed 30 mph    
Max Gust Speed 38 mph    
Visibility 10 miles    
Events      
T = Trace of Precipitation, MM = Missing Value Source: NWS Daily Summary

Daily Weather History Graph

Daily Weather History Graph

Search for Another Location

Airport or City:

Trip Planner

Search our weather history database for the weather conditions in past years. The results will help you decide how hot, cold, wet, or windy it might be!

Date:

Astronomy

Mar. 21, 2013 Rise Set
Actual Time 7:02 AM PDT 7:16 PM PDT
Civil Twilight 6:32 AM PDT 7:46 PM PDT
Nautical Twilight 5:56 AM PDT 8:22 PM PDT
Astronomical Twilight 5:20 AM PDT 8:59 PM PDT
Moon 1:34 PM PDT (3/21) 3:45 AM PDT (3/21)
Length of Visible Light 13h 14m
Length of Day
12h 14m
Waxing Gibbous, 69% of the Moon is Illuminated
Mar 21
Waxing Gibbous
Mar 27
Full
Apr 2
Last Quarter
Apr 10
New
Apr 18
First Quarter

Hourly Weather History & Observations

Time (PDT) Temp. Windchill Dew Point Humidity Pressure Visibility Wind Dir Wind Speed Gust Speed Precip Events Conditions
12:53 AM 42.1 °F 31.7 °F 19.0 °F 40% 29.92 in 10.0 mi West 27.6 mph 38.0 mph N/A   Clear
1:53 AM 41.0 °F 31.6 °F 19.0 °F 41% 29.95 in 10.0 mi West 20.7 mph 29.9 mph N/A   Clear
2:53 AM 37.9 °F 32.7 °F 19.0 °F 47% 29.96 in 10.0 mi WSW 6.9 mph - N/A   Clear
3:53 AM 37.9 °F 30.0 °F 19.0 °F 47% 29.99 in 10.0 mi West 12.7 mph 20.7 mph N/A   Clear
4:53 AM 42.1 °F 32.3 °F 19.0 °F 40% 30.00 in 10.0 mi West 24.2 mph 29.9 mph N/A   Clear
5:53 AM 39.9 °F 33.9 °F 19.9 °F 45% 30.02 in 10.0 mi WNW 9.2 mph - N/A   Clear
6:53 AM 36.0 °F 29.6 °F 19.9 °F 52% 30.03 in 10.0 mi NW 8.1 mph - N/A   Clear
7:53 AM 37.9 °F 33.5 °F 21.9 °F 53% 30.05 in 10.0 mi NE 5.8 mph - N/A   Mostly Cloudy
8:53 AM 41.0 °F 39.0 °F 24.1 °F 51% 30.07 in 10.0 mi East 3.5 mph - N/A   Mostly Cloudy
9:53 AM 44.1 °F - 24.1 °F 45% 30.08 in 10.0 mi Calm Calm - N/A   Mostly Cloudy
10:53 AM 46.9 °F - 19.0 °F 33% 30.09 in 10.0 mi Variable 3.5 mph - N/A   Overcast
11:53 AM 46.9 °F - 19.0 °F 33% 30.09 in 10.0 mi Calm Calm - N/A   Scattered Clouds
12:53 PM 52.0 °F - 19.9 °F 28% 30.09 in 10.0 mi WNW 19.6 mph 27.6 mph N/A   Mostly Cloudy
1:53 PM 53.1 °F - 19.0 °F 26% 30.06 in 10.0 mi West 25.3 mph 33.4 mph N/A   Mostly Cloudy
2:53 PM 53.1 °F - 19.9 °F 27% 30.04 in 10.0 mi West 24.2 mph 33.4 mph N/A   Mostly Cloudy
3:53 PM 50.0 °F - 17.1 °F 27% 30.05 in 10.0 mi WNW 17.3 mph - N/A   Mostly Cloudy
4:53 PM 50.0 °F - 18.0 °F 28% 30.06 in 10.0 mi West 25.3 mph 32.2 mph N/A   Mostly Cloudy
5:53 PM 46.9 °F - 19.0 °F 33% 30.06 in 10.0 mi West 24.2 mph - N/A   Scattered Clouds
6:53 PM 42.1 °F 35.7 °F 21.9 °F 45% 30.08 in 10.0 mi WNW 11.5 mph - N/A   Scattered Clouds
7:53 PM 41.0 °F 34.7 °F 23.0 °F 49% 30.11 in 10.0 mi WNW 10.4 mph - N/A   Clear
8:53 PM 37.9 °F 34.4 °F 25.0 °F 60% 30.14 in 10.0 mi North 4.6 mph - N/A   Clear
9:53 PM 37.0 °F 34.5 °F 26.1 °F 65% 30.14 in 10.0 mi NW 3.5 mph - N/A   Mostly Cloudy
10:53 PM 32.0 °F 27.5 °F 24.1 °F 73% 30.15 in 10.0 mi WSW 4.6 mph - N/A   Clear
11:53 PM 34.0 °F 27.2 °F 24.1 °F 67% 30.14 in 10.0 mi WSW 8.1 mph - N/A   Clear